FW0249 Weather Reports


time (UTC)temp
F
wind
direction
speed
knots
gust
knots
rain 1hr
in
rain 24hr
in
rain mn
in
humidity
%
barometer
mb
20260505034519 54 161 0.0 1.7 0.00 0.00 0.00 90 1014.0
20260505033018 54 140 0.0 2.6 0.00 0.00 0.00 89 1013.6
20260505031518 55 140 0.0 3.5 0.00 0.00 0.00 88 1013.6
20260505030016 55 140 0.9 4.3 0.00 0.00 0.00 87 1013.4
20260505024516 56 182 0.0 3.5 0.00 0.00 0.00 85 1013.2
20260505023015 57 209 0.0 6.1 0.00 0.00 0.00 84 1013.1
20260505021515 58 227 0.9 6.1 0.00 0.00 0.00 82 1013.2
20260505014514 60 232 0.9 7.0 0.00 0.00 0.00 80 1013.2
20260505013012 61 263 1.7 3.5 0.00 0.00 0.00 77 1013.3
20260505011515 62 130 0.9 7.0 0.00 0.00 0.00 75 1013.2
20260505010011 63 107 1.7 5.2 0.00 0.00 0.00 74 1013.3
20260505004511 63 207 0.9 5.2 0.00 0.00 0.00 71 1013.2
20260505003019 65 237 1.7 6.1 0.00 0.00 0.00 69 1013.4
20260505001510 66 252 0.9 5.2 0.00 0.00 0.00 69 1013.4
20260505000009 66 17 1.7 7.0 0.00 0.00 0.00 68 1013.3
20260504234509 66 134 1.7 7.8 0.00 0.00 0.00 68 1013.4
20260504233009 67 175 2.6 7.8 0.00 0.00 0.00 66 1013.4
20260504231506 67 127 0.9 7.0 0.00 0.00 0.00 66 1013.5
20260504230005 68 199 1.7 6.1 0.00 0.00 0.00 68 1013.5
20260504224504 68 193 1.7 8.7 0.00 0.00 0.00 64 1013.6
20260504223004 67 340 1.7 7.8 0.00 0.00 0.00 67 1013.6
20260504221503 68 156 1.7 7.8 0.00 0.00 0.00 67 1013.6
20260504220004 68 222 1.7 7.8 0.00 0.00 0.00 70 1013.8
20260504214501 68 146 1.7 7.0 0.00 0.00 0.00 68 1013.7
20260504213100 69 113 0.9 7.0 0.00 0.00 0.00 67 1013.6
20260504211601 69 142 1.7 7.8 0.00 0.00 0.00 70 1013.6
20260504210108 69 138 2.6 7.0 0.00 0.00 0.00 66 1013.7
20260504204607 70 11 1.7 7.8 0.00 0.00 0.00 68 1013.5
20260504203106 70 248 1.7 8.7 0.00 0.00 0.00 65 1013.4
20260504201554 70 182 1.7 6.1 0.00 0.00 0.00 66 1013.3
20260504200052 70 248 3.5 8.7 0.00 0.00 0.00 67 1013.4
20260504194550 71 175 1.7 7.8 0.00 0.00 0.00 65 1013.1
20260504193049 71 247 2.6 7.8 0.00 0.00 0.00 65 1013.2
20260504191543 71 161 1.7 7.8 0.00 0.00 0.00 67 1013.2
20260504190059 71 166 1.7 6.1 0.00 0.00 0.00 67 1013.1
20260504184536 71 175 1.7 6.1 0.00 0.00 0.00 66 1013.1
20260504183034 70 136 1.7 4.3 0.00 0.00 0.00 69 1013.0
20260504181629 70 140 1.7 7.0 0.00 0.00 0.00 69 1013.0
20260504180025 70 130 1.7 6.1 0.00 0.00 0.00 70 1012.9
20260504174521 68 133 0.9 6.1 0.00 0.00 0.00 70 1012.7
20260504173016 68 89 0.9 5.2 0.00 0.00 0.00 70 1012.8
20260504171512 66 121 0.0 6.1 0.00 0.00 0.00 73 1012.9
20260504081540 53 214 0.0 0.0 0.00 0.00 0.00 88 1010.5
20260504050019 62 214 0.0 0.9 0.00 0.00 0.00 68 1010.8
20260504044518 63 214 0.0 0.0 0.00 0.00 0.00 67 1010.7
20260504043017 64 214 0.0 0.0 0.00 0.00 0.00 65 1010.5
20260504041516 66 214 0.0 0.0 0.00 0.00 0.00 66 1010.6
20260504040015 67 214 0.0 0.0 0.00 0.00 0.00 64 1010.5